Location: Musselshell
(46.5176°N, 108.0911°W)
Time: 13:54:40
(UTC+00:00)

EO-88 - Visible Passes

Search period start: 26 June 2022 00:00
Search period end: 06 July 2022 00:00
Orbit: 458 x 464 km, 97.3° (Epoch: 26 June)

Date Brightness Start Highest point End Pass type
(mag) Time Alt. Az. Time Alt. Az. Time Alt. Az.
26 Jun ? 04:15:15 13° SSE 04:18:15 50° ENE 04:21:39 10° N visible
26 Jun ? 05:50:23 10° WSW 05:51:33 11° W 05:52:42 10° WNW visible
27 Jun ? 03:44:09 10° ESE 03:46:52 22° ENE 03:49:37 10° NNE visible
27 Jun ? 05:17:18 13° SSW 05:19:46 26° W 05:22:44 10° NW visible
28 Jun ? 04:45:25 16° S 04:48:05 65° W 04:51:34 10° NNW visible
29 Jun ? 04:13:32 12° SSE 04:16:31 48° ENE 04:19:54 10° N visible
29 Jun ? 05:48:27 10° WSW 05:49:48 12° W 05:51:08 10° WNW visible
30 Jun ? 03:42:25 10° ESE 03:45:04 21° ENE 03:47:45 10° NNE visible
30 Jun ? 05:15:28 13° SSW 05:17:55 27° W 05:20:56 10° NW visible
01 Jul ? 04:43:31 16° S 04:46:10 69° WSW 04:49:39 10° NNW visible
02 Jul ? 04:11:32 12° SE 04:14:32 45° ENE 04:17:52 10° N visible
02 Jul ? 05:46:13 10° WSW 05:47:45 12° W 05:49:18 10° WNW visible
03 Jul ? 05:13:23 14° SSW 05:15:48 28° W 05:18:52 10° NW visible
04 Jul ? 04:41:20 16° S 04:43:58 74° WSW 04:47:26 10° NNW visible
05 Jul ? 04:09:15 12° SE 04:12:14 42° ENE 04:15:32 10° N visible
05 Jul ? 05:43:42 10° WSW 05:45:25 13° W 05:47:10 10° WNW visible
